| time (UTC) | temp F | wind direction | speed knots | gust knots | rain 1hr in | rain 24hr in | rain mn in | humidity % | barometer mb |
| 20260507173047 | 58 | 253 | 0.9 | 2.6 | 0.00 | 0.00 | 0.00 | ||
| 20260507170057 | 57 | 327 | 0.9 | 5.2 | 0.00 | 0.00 | 0.00 | ||
| 20260507163037 | 57 | 231 | 0.9 | 3.5 | 0.00 | 0.00 | 0.00 | ||
| 20260507160108 | 56 | 190 | 0.0 | 2.6 | 0.00 | 0.00 | 0.00 | ||
| 20260507153046 | 56 | 168 | 0.9 | 3.5 | 0.00 | 0.00 | 0.00 | ||
| 20260507150056 | 59 | 270 | 0.9 | 2.6 | 0.00 | 0.00 | 0.00 | ||
| 20260507140106 | 56 | 285 | 0.0 | 1.7 | 0.00 | 0.00 | 0.00 | ||
| 20260507133044 | 49 | 292 | 0.0 | 0.0 | 0.00 | 0.00 | 0.00 | ||
| 20260507123053 | 49 | 292 | 0.0 | 0.0 | 0.00 | 0.00 | 0.00 | ||
| 20260507113041 | 49 | 251 | 0.0 | 0.9 | 0.00 | 0.00 | 0.00 | ||
| 20260507110051 | 50 | 251 | 0.0 | 0.9 | 0.00 | 0.00 | 0.00 | ||
| 20260507103030 | 50 | 246 | 0.0 | 0.9 | 0.00 | 0.00 | 0.00 | ||
| 20260507093045 | 50 | 268 | 0.0 | 0.9 | 0.00 | 0.00 | 0.00 | ||
| 20260507090057 | 51 | 268 | 0.0 | 0.9 | 0.00 | 0.00 | 0.00 | ||
| 20260507083033 | 51 | 237 | 0.0 | 0.9 | 0.00 | 0.00 | 0.00 | ||
| 20260507073044 | 51 | 226 | 0.0 | 1.7 | 0.00 | 0.00 | 0.00 | ||
| 20260507070056 | 51 | 252 | 0.0 | 0.9 | 0.00 | 0.00 | 0.00 | ||
| 20260507063030 | 51 | 325 | 0.9 | 2.6 | 0.00 | 0.00 | 0.00 | ||
| 20260507050056 | 53 | 217 | 0.0 | 2.6 | 0.00 | 0.00 | 0.00 | ||
| 20260507043036 | 53 | 238 | 0.9 | 3.5 | 0.00 | 0.00 | 0.00 | ||
| 20260507033046 | 54 | 224 | 0.0 | 1.7 | 0.00 | 0.00 | 0.00 | ||
| 20260507023041 | 55 | 10 | 0.9 | 3.5 | 0.00 | 0.00 | 0.00 | ||
| 20260507020049 | 55 | 212 | 0.9 | 4.3 | 0.00 | 0.00 | 0.00 | ||
| 20260507013050 | 55 | 330 | 0.9 | 3.5 | 0.00 | 0.00 | 0.00 | ||
| 20260507010100 | 56 | 248 | 0.9 | 3.5 | 0.00 | 0.00 | 0.00 | ||
| 20260507003037 | 56 | 282 | 1.7 | 3.5 | 0.00 | 0.00 | 0.00 | ||
| 20260506233045 | 55 | 219 | 0.0 | 1.7 | 0.00 | 0.00 | 0.00 | ||
| 20260506230053 | 55 | 262 | 0.9 | 8.7 | 0.00 | 0.00 | 0.00 | ||
| 20260506223054 | 57 | 242 | 1.7 | 7.8 | 0.00 | 0.00 | 0.00 | ||
| 20260506213043 | 57 | 222 | 0.9 | 7.0 | 0.00 | 0.00 | 0.00 | ||
| 20260506210112 | 58 | 224 | 1.7 | 5.2 | 0.00 | 0.00 | 0.00 | ||
| 20260506203048 | 58 | 251 | 0.9 | 7.0 | 0.00 | 0.00 | 0.00 | ||
| 20260506200101 | 56 | 243 | 0.9 | 5.2 | 0.00 | 0.00 | 0.00 | ||
| 20260506193043 | 57 | 285 | 0.9 | 5.2 | 0.00 | 0.00 | 0.00 | ||
| 20260506183033 | 55 | 215 | 0.9 | 3.5 | 0.00 | 0.00 | 0.00 | ||
| 20260506180104 | 54 | 270 | 0.0 | 2.6 | 0.00 | 0.00 | 0.00 |